"Pseudo-MPEC" for JA0004

Created 2019 May 8 16:07:17 UT using Find_Orb

Click here for an explanation of pseudo-MPECs

 
 Astrometry: 
     JA0004   C2019 04 02[Mh%M*%eAstrometryD%\XM0O#OmH8_sgq(s,tmy0@A5nLn3pto(F51
     JA0004   C2019 04 02!ZXXc%Yerr_9Cg2O%(LF$anPV[*+(+e:c(tvmloR+8tqB6P$P(#xF51
     JA0004   C2019 04 02X3Z2=e;*/@2)%Oe24X,+TB6X^f;;eM)y`dU#ndwZHm_wYq2k#qyyF51
     JA0004   C2019 04 02-17NLS9T\8:6Vo9$3j^[^CYqoEbL;LJL=RSJE-,]GCmp6q)'Ue?RF51
     JA0004  KC2019 04 05x6!CRN_mTcsK;Lv`Y\wZYjPp;4QJSpWQ`Xt8`Y_nwX@l+Sx*y2O)W93
     JA0004  KC2019 04 05(jq3oJ]LUC^O5ycNG`,gRk]_06jcHsF*cq2B.^x+wM@vjnC*Te7FW93
     JA0004   C2019 04 05v0l@Mn9sRWk#i41(f%96U^^Rh9q%9NV#@PPiD#A!oyD]0IM+=:mCW93
     JA0004   C2019 04 07;H.lXe3/;V-rQbgP,Ja3Mhrj+3D-ZgxjdkHOX1Dh=?Z^JgceT6SLW93
     JA0004   C2019 04 07Z89%MFV6AK9J]$IKw@DW$nxA3RX@YlYLq3TriZ.d_!iBZ8GWXEh6W93
     JA0004   C2019 04 07ngX'sjH,\[Y.n3]GhH,D7($)O5;tWQhD/Jryr$6S7DG$J^Kl,16wW93
     JA0004   C2019 04 079nZB)uqaM9_6c1j[6hMJ5,Nt1tZC126%F3cB*$ICc_-u)Be/1l3xF51
     JA0004   C2019 04 07;N06c-GuCA0i=:Gf81y`/AKs,q`-p[ZlDgmsdsou=2idS'OYiBnoF51
     JA0004   C2019 04 09.f0o62Qp$O7q#UDr*;^tZ7U/J6yG8mp3pIl!sJPdu-@@%$[R;U.%F51
     JA0004   C2019 04 09ZxX[6KQj_X`b$a\OlFJy@j%ECwuR_Tf]2GM8Swe$_i@u2BC1b3jaF51
     JA0004   C2019 04 09mg_CtxQ`\dbco'SZ`l#hvld?#,nhT['wU%(p;l2YH'`U;HZj:LT3F51
     JA0004  KC2019 04 11*Z@xt3)KCcSmX%7,RX!,?gJ4m$Gw8AO;;=x@`aNStN21*r=bsJBlW93
     JA0004  KC2019 04 117lZ^p\6c#e$s(9BAO8I;#redacted;T3A,k9y\+3@VoV?svwFXS9W93
     JA0004  KC2019 04 13Uq[*c*FA8YbU@-Hsi-,ccV@\Op3ONgh)^#h.4CFG+UAlWclick:[W93
     JA0004  KC2019 04 13e!D(W?`4Ri=?WFX[4ZCWC$SE.0:iuogX`wfNOUkof8'!ax]rva4OW93
     JA0004  ^C2019 04 24`B9e5o,mOlD;AsJhere2hk$ol_0EB(A)ppil/DWxmEC0i8+=cr_.695
     JA0004  ^C2019 04 24P/T5?yW@:Lj*?NvRunR%uWd8t\x(3-\H\Z\Vt/GXN!`$S\s_R[1s695
     JA0004  ^C2019 04 26+Sq3@XJB_`AQPc/Xdp]rR0W,blXfI17for7QpaN/GP*='5[kmEa*695
     JA0004  ^C2019 04 26q9:)yu=5;gF-$RW?f@0J7l_r]Sx7ikRLj.H.C=ODJ-P[LV!F@L]f695
     JA0004  ^C2019 04 261V#N!VqlbD7pFE:ct8hexplanation'hI-xK-wj+bb[Nd7F0yj!o695

Station data:
(695) Kitt Peak  (N31.958398 W111.594670)  US/Arizona.
(F51) Pan-STARRS 1, Haleakala  (N20.707235 W156.255910)  US/Hawaii.
   Observers N. Primak, A. Schultz, S. Watters, J. Thiel, T. Goggia. Measurer
   PS1 Science Consortium. 1.8-m Ritchey-Chrétien + CCD.
(W93) Korea Microlensing Telescope Network-CTIO  (S30.167216 W70.804000)
   Chile.  Observer Y. JeongAhn. 1.6-m f/3.22 reflector + CCD.

Orbital elements:  JA0004
   Perihelion 2027 Mar 21.971432 +/- 298 TT = 23:18:51 (JD 2461486.471432)
Epoch 2019 Apr 26.0 TT = JDT 2458599.5   Ur: 0.6708           AutoNEOCP
M 339.76727353 +/- 6                (J2000 ecliptic)
n   0.00700828 +/- 0.00328          Peri.  242.23246 +/- 4.8
a  27.0434088 +/- 8.71              Node    28.10921 +/- 0.7
e   0.5674089 +/- 0.138             Incl.    8.11233 +/- 0.48
P 140.63                   H 11.5   G  0.15   U  9.0  
q 11.6987363 +/- 0.347    Q 42.3880813 +/- 428
From 24 observations 2019 Apr. 2-26; mean residual 0".29
Residuals in arcseconds: 
190402 F51  .20-  .09-    190407 W93  .38+  .06+    190411 W93  .14+  .12-    
190402 F51  .18-  .06+    190407 W93  .40+  .31+    190413 W93  .45-  .16+    
190402 F51  .07-  .04+    190407 F51  .24-  .33-    190413 W93  .05+  .23-    
190402 F51  .44+  .45+    190407 F51  .18-  .08-    190424 695  .10+  .26-    
190405 W93  .47-  .75-    190409 F51  .42-  .16+    190424 695  .24+  .30+    
190405 W93  .01-  .01-    190409 F51  .26+  .30-    190426 695  .19-  .12-    
190405 W93  .21+  .34-    190409 F51  .34+  .04-    190426 695  .01+  .12+    
190407 W93  .07+  .91+    190411 W93  .09-  .24+    190426 695  .09-  .03-    

Ephemerides (geocentric):
Date (UTC) HH   RA              Dec         delta   r     elong  mag " sig PA
---- -- -- --  -------------   -----------  ------ ------ -----  --- ---- ---
2019 05 08 16  13 02 56.896   -05 07 27.91  14.735 15.609 148.9 23.5 3.37 122
2019 05 08 17  13 02 56.518   -05 07 26.11  14.736 15.608 148.9 23.5 3.39 122
2019 05 08 18  13 02 56.140   -05 07 24.32  14.736 15.608 148.8 23.5 3.41 122
2019 05 08 19  13 02 55.763   -05 07 22.53  14.736 15.608 148.8 23.5 3.43 122
2019 05 08 20  13 02 55.386   -05 07 20.74  14.737 15.608 148.7 23.5 3.45 122
2019 05 08 21  13 02 55.009   -05 07 18.96  14.737 15.608 148.7 23.5 3.47 122
2019 05 08 22  13 02 54.632   -05 07 17.17  14.737 15.608 148.7 23.5 3.49 122
2019 05 08 23  13 02 54.255   -05 07 15.39  14.737 15.608 148.6 23.5 3.51 122
2019 05 09 00  13 02 53.879   -05 07 13.61  14.738 15.608 148.6 23.5 3.53 122
2019 05 09 01  13 02 53.503   -05 07 11.83  14.738 15.608 148.5 23.5 3.55 122
2019 05 09 02  13 02 53.127   -05 07 10.05  14.738 15.608 148.5 23.5 3.57 122
2019 05 09 03  13 02 52.752   -05 07 08.27  14.738 15.608 148.5 23.5 3.59 122
2019 05 09 04  13 02 52.376   -05 07 06.50  14.739 15.607 148.4 23.5 3.61 122
2019 05 09 05  13 02 52.001   -05 07 04.73  14.739 15.607 148.4 23.5 3.63 122
2019 05 09 06  13 02 51.626   -05 07 02.95  14.739 15.607 148.3 23.5 3.65 122
2019 05 09 07  13 02 51.252   -05 07 01.18  14.739 15.607 148.3 23.5 3.67 122
2019 05 09 08  13 02 50.877   -05 06 59.41  14.740 15.607 148.2 23.5 3.69 122
2019 05 09 09  13 02 50.503   -05 06 57.65  14.740 15.607 148.2 23.5 3.71 122
2019 05 09 10  13 02 50.129   -05 06 55.88  14.740 15.607 148.2 23.5 3.74 122
2019 05 09 11  13 02 49.756   -05 06 54.12  14.741 15.607 148.1 23.5 3.76 122
2019 05 09 12  13 02 49.382   -05 06 52.36  14.741 15.607 148.1 23.5 3.78 122
2019 05 09 13  13 02 49.009   -05 06 50.60  14.741 15.607 148.0 23.5 3.80 122
2019 05 09 14  13 02 48.636   -05 06 48.84  14.741 15.607 148.0 23.5 3.82 122
2019 05 09 15  13 02 48.264   -05 06 47.08  14.742 15.606 148.0 23.5 3.84 122
2019 05 09 16  13 02 47.891   -05 06 45.32  14.742 15.606 147.9 23.5 3.86 122
2019 05 09 17  13 02 47.519   -05 06 43.57  14.742 15.606 147.9 23.5 3.88 122
2019 05 09 18  13 02 47.147   -05 06 41.82  14.742 15.606 147.8 23.5 3.90 122
2019 05 09 19  13 02 46.775   -05 06 40.07  14.743 15.606 147.8 23.5 3.93 122
2019 05 09 20  13 02 46.404   -05 06 38.32  14.743 15.606 147.7 23.5 3.95 122
2019 05 09 21  13 02 46.033   -05 06 36.57  14.743 15.606 147.7 23.5 3.97 122
2019 05 09 22  13 02 45.662   -05 06 34.83  14.744 15.606 147.7 23.5 3.99 122
2019 05 09 23  13 02 45.291   -05 06 33.08  14.744 15.606 147.6 23.5 4.01 122
2019 05 10 00  13 02 44.921   -05 06 31.34  14.744 15.606 147.6 23.5 4.03 122
2019 05 10 01  13 02 44.551   -05 06 29.60  14.744 15.606 147.5 23.5 4.06 122
2019 05 10 02  13 02 44.181   -05 06 27.86  14.745 15.605 147.5 23.5 4.08 122
2019 05 10 03  13 02 43.811   -05 06 26.12  14.745 15.605 147.4 23.5 4.10 122
2019 05 10 04  13 02 43.441   -05 06 24.39  14.745 15.605 147.4 23.5 4.12 122
2019 05 10 05  13 02 43.072   -05 06 22.65  14.745 15.605 147.4 23.5 4.14 122
2019 05 10 06  13 02 42.703   -05 06 20.92  14.746 15.605 147.3 23.5 4.17 122
2019 05 10 07  13 02 42.334   -05 06 19.19  14.746 15.605 147.3 23.5 4.19 122
2019 05 10 08  13 02 41.966   -05 06 17.46  14.746 15.605 147.2 23.5 4.21 122
2019 05 10 09  13 02 41.598   -05 06 15.73  14.747 15.605 147.2 23.5 4.23 122
2019 05 10 10  13 02 41.230   -05 06 14.01  14.747 15.605 147.2 23.5 4.25 122
2019 05 10 11  13 02 40.862   -05 06 12.28  14.747 15.605 147.1 23.5 4.28 122
2019 05 10 12  13 02 40.495   -05 06 10.56  14.747 15.605 147.1 23.5 4.30 122
2019 05 10 13  13 02 40.127   -05 06 08.84  14.748 15.604 147.0 23.5 4.32 122
2019 05 10 14  13 02 39.760   -05 06 07.12  14.748 15.604 147.0 23.5 4.35 122
2019 05 10 15  13 02 39.394   -05 06 05.40  14.748 15.604 146.9 23.5 4.37 122